Tracking 31027 objects as of 19-Jul-2025
HD Live streaming from Space Station
objects crossing your sky now

STARLINK-5859

Track STARLINK-5859 now!
10-day predictions
STARLINK-5859 is classified as:


NORAD ID: 55915
Int'l Code: 2023-037B
Perigee: 576.9 km
Apogee: 581.6 km
Inclination: 70.0 °
Period: 96.1 minutes
Semi major axis: 6950 km
RCS: Unknown
Launch date: March 17, 2023
Source: United States (US)
Launch site: AIR FORCE WESTERN TEST RANGE (AFWTR)
Your satellite tracking list
STARLINK-3349
Track 1 satellite(s)




NASA's NSSDC Master Catalog

Two Line Element Set (TLE):
1 55915U 23037B   25199.68074839  .00006210  00000-0  52815-3 0  9994
2 55915  69.9990 174.5251 0003343 266.9312  93.1464 14.98304722128778
Source of the keplerian elements: AFSPC